STARLINK-33589 (62759 NORAD) Tracking and Keplerian Element Data

This shows tracking and keplerian element data for the satellite.

Feedback or suggestion? Click here.




ElementValue
Catalog62759
NameSTARLINK-33589
Epoch Orbit328
Epoch Day34.83335648
Epoch Year2025
RAAN20.8057
Inclination53.1603
Eccentricity9.5E-05
Argument of Perigee88.4684
Mean Anonmoly314.9349
Mean Motion15.79868484
Decay Rate-0.00880212
L11 62759U 25015B 25034.83335648 -.00880212 00000+0 -51661-2 0 9999
L22 62759 53.1603 20.8057 0000950 88.4684 314.9349 15.79868484 3289



Live tracking and technical data element details for STARLINK-33589 (NORAD 62759). STARLINK-33589 can be tracked NOW for your location showing map with azimuth and elevation plus other details from your city location.







IsCatalogInMostPopularTable: catalog: 62759, numindb: 2
Update: records affected: 1



GetName: 62759 STARLINK-33589

Hit Count: updated at: Sun, 09 Feb 2025 13:54:10 GMT